Terminal Aerodrome Forecast
Issued by NWS Duluth, MN

Home | Current Version | Previous Version | Text Only | Print | Product List | Glossary On
Versions: 1 2 3 4 5 6 7 8 9 10 11 12 13 14 15 16 17 18 19 20 21
320
FTUS43 KDLH 051017 AAA
TAFDLH
TAF AMD
KDLH 051017Z 0510/0606 VRB04KT P6SM VCSH OVC070
     FM051500 22008KT P6SM SCT100
     FM051900 25012G20KT P6SM SKC
     FM060100 25008KT P6SM SKC=

USA.gov is the U.S. government's official web portal to all federal, state and local government web resources and services.